Weather in Chernelitsa

Ukraine / Ivano-Frankovsk District     48°48′40″N   25°25′47″E
temp.,
°C
wind,
m/s
gust,
m/s
humid.,
%
clouds,
%
prec.,
mm/h
press.,
hPa
HPBL,
m
18 may, tue
tue1800:00+12e228625 0.0 100211
03:00+11e1189100 0.0 100110
06:00+11sse2297100 1.7 100032
09:00+12wnw3494100 4.5 1001384
12:00+14nw5683100 0.6 1001783
15:00+13wnw81087100 1.0 1002634
18:00+12wnw101488100 0.1 1002854
21:00+10wnw101891100 0.7 1003891
19 may, wed
wed1900:00+10wnw101794100 0.6 1005760
03:00+10wnw11179199 0.8 1006779
06:00+10wnw91689100 0.0 1007785
09:00+11wnw91585100 0.1 1009838
12:00+14nw91273100 0.1 10101134
15:00+16nw8106354 0.2 10101552
18:00+16nw686453 0.1 10101294
21:00+11n2288100 0.1 101124
20 may, thu
thu2000:00+9w11918 0.0 101210
03:00+8n1193100 0.0 101110
06:00+8nne1193100 0.0 101121
09:00+11ne2383100 0.0 1011381
12:00+14ene4566100 0.3 10101321
15:00+12sse3487100 3.3 1010265
18:00+10w3495100 4.5 1011282
21:00+10nw4998100 7.2 1011291
21 may, fri
fri2100:00+11nne71495100 2.0 1011533
03:00+11n71295100 4.0 1012631
06:00+10nne81593100 5.8 1013833
09:00+10nne71393100 11.6 1015670
12:00+12ne3690100 4.7 1016535
15:00+16ne347078 5.9 10161072
18:00+16ene23706 1.6 1016933
21:00+12wsw01825 1.8 101710
22 may, sat
sat2200:00+10w11875 0.0 101710
03:00+9sw11901 0.0 101710
06:00+8ssw119217 0.0 101710
09:00+13sse338293 0.0 1016330
12:00+17sse336517 0.0 1015879
15:00+20se445860 0.0 10131044
18:00+19se576999 0.0 1012988
21:00+14se41084100 0.0 1012212